Location: Capelle
(50.3413°N, 1.9974°E)
Time: 15:23:05
(UTC+00:00)

BREEZE-M DEB (TANK) - Visible Passes

Search period start: 11 April 2026 00:00
Search period end: 21 April 2026 00:00
Orbit: 345 x 14320 km, 49.5° (Epoch: 10 April)

Date Brightness Start Highest point End Pass type
(mag) Time Alt. Az. Time Alt. Az. Time Alt. Az.
11 Apr 6.8 03:51:32 12° WSW 04:50:34 82° SSE 05:00:52 10° E visible
11 Apr 8.9 21:36:48 13° ESE 22:02:03 16° ESE 22:22:05 10° E visible
12 Apr 7.6 02:03:06 26° SSW 02:53:06 66° SSE 03:08:31 10° ENE visible
13 Apr 8.3 00:14:27 30° S 00:53:32 47° SE 01:15:16 10° ENE visible
13 Apr 8.7 22:25:37 22° SE 22:54:19 28° ESE 23:19:27 10° ENE visible
14 Apr 7.2 02:51:49 20° SW 03:46:50 77° SSE 03:59:25 10° ENE visible
15 Apr 7.9 01:02:43 30° SSW 01:48:06 59° SE 02:06:42 10° ENE visible
15 Apr 8.6 23:13:22 29° SSE 23:47:58 40° SE 00:12:38 10° ENE visible
16 Apr 6.8 03:39:28 12° WSW 04:39:53 85° SSE 04:50:05 10° E visible
16 Apr 8.8 21:23:45 17° SE 21:49:56 21° ESE 22:14:15 10° ENE visible
17 Apr 7.5 01:49:48 26° SW 02:42:15 71° SSE 02:57:38 10° ENE visible
17 Apr 8.3 23:59:49 32° S 00:42:21 52° SE 01:04:24 10° ENE visible
18 Apr 8.6 22:09:27 25° SE 22:42:22 33° ESE 23:09:10 10° ENE visible
19 Apr 7.2 02:35:19 18° SW 03:35:44 80° SSE 03:48:15 10° ENE visible
19 Apr 8.9 20:18:36 10° ESE 20:46:19 14° E 21:05:04 10° ENE visible
20 Apr 7.9 00:44:23 29° SSW 01:36:46 64° SE 01:55:27 10° ENE visible
